Total_Precipitation_Accumulation
1.46 1.47 1.68 1.54 1.42 1.42 1.49 1.49 1.51 1.46 1.50 1.60 1.53 1.49 1.46 1.45 1.34 1.26 1.30 1.41 1.49 1.56 1.72 1.79 1.75 1.67 1.63 1.51 1.39 1.35 1.40 1.38 1.55 1.56 1.49 1.46 1.53 1.67 1.84 1.90 1.94 1.31 1.12
1.20 1.13 1.33 1.31 1.30 1.43 1.41 1.44 1.52 1.46 1.46 1.49 1.43 1.37 1.35 1.34 1.35 1.28 1.31 1.41 1.46 1.58 1.73 1.74 1.62 1.50 1.38 1.26 1.16 1.19 1.33 1.44 1.65 1.77 1.83 1.72 1.77 1.89 1.93 1.88 1.95 1.21 1.12
0.87 0.83 0.92 1.11 1.08 1.13 1.15 1.19 1.33 1.33 1.33 1.34 1.31 1.28 1.35 1.38 1.36 1.33 1.33 1.44 1.50 1.54 1.63 1.62 1.47 1.32 1.20 1.15 1.12 1.21 1.32 1.62 1.99 2.23 2.44 1.97 1.51 1.92 1.95 1.77 1.52 1.08 1.10
0.62 0.65 0.70 0.94 1.00 1.00 1.04 1.09 1.21 1.22 1.19 1.20 1.22 1.25 1.27 1.32 1.38 1.41 1.42 1.48 1.46 1.47 1.65 1.51 1.32 1.12 1.03 1.05 1.14 1.26 1.38 1.64 1.99 2.52 2.75 1.86 1.22 1.44 1.51 1.33 1.23 1.07 1.01
0.45 0.56 0.72 0.86 0.98 1.00 0.97 1.02 1.12 1.08 1.10 1.12 1.11 1.15 1.21 1.27 1.38 1.43 1.40 1.36 1.27 1.35 1.52 1.38 1.16 0.99 0.90 0.94 1.11 1.23 1.38 1.70 2.00 2.21 1.92 1.88 1.66 1.44 1.22 1.10 1.10 1.00 0.83
0.38 0.51 0.71 0.81 0.79 0.80 0.82 0.94 1.03 1.06 1.08 1.05 1.01 1.08 1.18 1.23 1.27 1.27 1.21 1.14 1.13 1.19 1.24 1.21 1.03 0.94 0.92 0.99 1.12 1.22 1.39 1.74 1.88 1.48 1.29 1.60 1.38 1.38 1.26 1.23 1.22 1.08 0.85
0.41 0.48 0.61 0.77 0.74 0.77 0.81 0.85 0.91 1.03 1.02 0.96 0.97 1.04 1.16 1.17 1.23 1.21 1.03 0.94 1.02 1.11 1.11 1.01 0.96 0.92 0.92 0.98 1.06 1.18 1.48 1.76 1.60 1.18 1.21 1.54 1.22 1.16 1.28 1.39 1.50 1.30 1.03
0.41 0.44 0.53 0.67 0.72 0.76 0.76 0.78 0.84 0.87 0.91 0.96 1.00 1.05 1.03 1.10 1.14 1.06 0.94 0.92 0.93 1.02 1.02 0.91 0.97 0.94 0.89 0.94 0.98 1.06 1.31 1.53 1.28 1.08 1.12 1.24 1.00 1.12 1.31 1.49 1.68 1.50 1.26
0.45 0.47 0.52 0.61 0.69 0.74 0.79 0.80 0.87 0.93 0.90 0.95 1.01 1.04 1.07 1.05 0.95 0.88 0.94 0.96 0.90 0.92 0.93 0.87 0.85 0.82 0.80 0.84 0.91 1.03 1.27 1.56 1.39 1.21 1.03 0.96 0.93 1.17 1.46 1.58 1.61 1.54 1.39
0.81 0.72 0.55 0.51 0.62 0.69 0.69 0.83 0.92 0.92 0.91 0.94 1.00 1.08 1.07 0.96 0.86 0.85 0.89 0.97 0.96 0.92 0.88 0.83 0.77 0.74 0.79 0.84 0.94 1.16 1.39 1.47 1.39 1.29 1.16 0.92 1.03 1.31 1.51 1.56 1.62 1.57 1.44
1.31 1.20 0.80 0.64 0.69 0.78 0.69 0.71 0.92 1.00 0.98 1.07 1.19 1.20 1.27 1.35 1.18 1.24 1.15 1.21 1.15 1.07 1.05 1.04 0.99 0.92 0.82 0.77 0.95 1.24 1.31 1.37 1.64 1.62 1.18 0.96 1.16 1.49 1.64 1.69 1.70 1.63 1.54
1.50 1.45 1.10 0.98 0.81 0.74 0.65 0.82 1.11 1.12 1.23 1.35 1.46 1.38 1.65 1.87 1.73 1.34 1.49 1.76 1.70 1.65 1.53 1.50 1.44 1.19 0.98 0.95 1.43 1.80 1.48 1.67 1.80 1.46 1.20 1.23 1.55 1.90 2.14 2.01 1.79 1.62 1.48
1.63 1.54 1.32 1.23 1.11 0.92 1.02 1.00 1.20 1.48 1.68 1.56 1.42 1.48 1.85 1.75 1.48 1.47 1.64 1.83 2.01 1.91 1.83 1.91 1.97 1.69 1.62 1.89 2.17 2.05 1.65 1.78 1.78 1.65 1.42 1.54 1.97 2.50 2.76 2.52 2.11 1.79 1.54
1.91 1.80 1.62 1.42 1.28 1.24 1.23 1.20 1.32 1.43 1.61 1.64 1.70 1.63 1.85 2.15 2.06 2.05 2.21 2.17 2.26 2.40 2.71 2.55 2.58 2.35 2.19 2.11 2.21 2.01 1.86 1.94 1.91 2.19 2.22 2.13 2.29 2.66 3.14 2.95 2.50 2.12 1.84
2.39 2.30 2.10 1.76 1.72 1.68 1.76 1.83 1.59 1.64 1.72 1.94 2.10 2.06 2.06 2.34 2.37 2.41 2.46 2.47 2.30 2.39 2.57 2.84 2.70 2.74 2.76 2.52 2.20 2.07 2.18 2.25 2.35 2.40 2.35 2.53 2.46 2.52 3.06 3.17 2.83 2.44 2.22
3.03 3.06 2.85 2.49 2.45 2.40 2.25 2.21 2.12 1.93 2.08 2.14 2.26 2.24 2.26 2.52 2.70 2.66 2.51 2.52 2.38 2.36 2.47 2.70 2.75 3.11 3.08 2.98 2.51 2.30 2.34 2.43 2.46 2.58 2.49 2.73 2.60 2.39 2.69 2.99 3.07 2.89 2.62
3.29 3.47 3.47 3.31 3.30 3.22 2.99 2.70 2.47 2.36 2.30 2.51 2.60 2.51 2.57 2.63 2.82 2.78 2.69 2.50 2.45 2.49 2.69 2.78 2.84 3.11 3.13 3.04 2.88 2.69 2.55 2.32 2.18 2.26 2.30 2.46 2.41 2.33 2.45 2.70 3.01 3.10 2.99
3.56 3.78 4.00 3.94 3.95 3.79 3.59 3.31 3.01 2.78 2.74 2.73 2.69 2.68 2.60 2.74 2.80 2.91 2.71 2.45 2.52 2.48 2.65 2.96 3.07 3.26 3.45 3.44 3.17 2.87 2.69 2.53 2.29 2.23 2.12 2.10 2.34 2.04 2.26 2.55 2.76 2.90 3.23
3.93 4.31 4.70 4.77 4.69 4.36 3.99 3.79 3.65 3.41 3.18 2.96 2.92 2.82 2.71 2.71 2.67 2.84 2.67 2.57 2.61 2.78 2.81 2.64 3.22 3.55 3.63 3.61 3.01 2.87 2.52 2.38 2.21 2.07 2.11 1.96 2.08 2.15 2.18 2.19 2.33 2.51 3.10
4.44 5.06 5.15 5.16 5.40 5.12 4.79 4.56 4.33 3.89 3.49 3.18 3.05 2.93 2.71 2.64 2.58 2.84 2.58 2.57 2.71 2.97 3.05 3.15 3.57 3.65 3.49 3.65 3.03 2.65 2.26 1.90 1.84 1.85 1.73 1.73 1.73 1.71 1.89 2.27 2.60 2.32 2.74
4.29 4.89 5.53 5.69 5.54 5.31 5.00 4.53 4.16 3.74 3.48 3.18 2.92 2.72 2.66 2.63 2.71 3.12 2.77 3.02 2.93 2.98 3.04 3.21 3.49 3.46 3.25 3.55 3.55 2.85 2.03 1.58 1.57 1.45 1.42 1.49 1.45 1.51 1.78 2.31 2.68 2.74 2.49
3.73 4.19 4.63 4.92 4.61 4.27 4.05 3.94 3.79 3.71 3.31 3.14 3.09 3.14 2.84 2.85 2.84 2.89 3.10 3.02 3.04 3.12 2.94 3.03 3.35 3.20 2.82 3.24 3.55 3.47 2.59 2.04 1.59 1.12 1.22 1.28 1.39 1.59 1.63 1.72 2.18 2.70 2.59
3.19 3.35 3.49 3.69 3.74 3.76 3.80 3.87 3.94 4.07 3.73 3.60 3.55 3.46 3.03 2.92 2.87 2.94 2.89 2.84 2.94 2.87 2.83 2.83 3.04 3.14 2.96 2.98 3.37 3.67 2.99 2.32 1.81 1.32 1.22 1.16 1.47 1.81 1.80 1.82 1.98 2.34 2.48
2.50 2.76 3.21 3.42 3.54 3.73 3.97 3.95 3.95 3.90 3.81 3.79 3.91 3.87 3.68 3.39 3.14 2.94 2.76 2.69 2.64 2.56 2.66 2.44 2.72 2.95 3.07 2.77 2.90 2.95 2.78 2.68 2.51 1.83 1.42 1.30 1.58 1.83 1.95 1.91 1.97 2.17 2.36
2.10 2.39 2.92 3.44 3.71 3.86 4.04 4.13 4.36 4.19 4.04 3.91 3.97 4.04 3.80 3.54 3.20 2.85 2.80 2.73 2.66 2.53 2.44 2.38 2.60 2.55 2.64 2.63 2.65 2.69 2.72 2.69 2.50 2.24 1.86 1.72 1.68 1.46 1.48 1.63 1.88 2.12 2.24
2.25 2.50 2.87 3.32 3.67 3.84 3.94 3.98 4.05 4.03 4.00 3.80 3.68 3.43 3.06 2.92 2.81 2.59 2.53 2.50 2.40 2.39 2.40 2.38 2.41 2.37 2.45 2.52 2.51 2.50 2.60 2.61 2.56 2.59 2.28 2.05 1.86 1.59 1.51 1.57 1.71 1.87 1.97